Flag for Germany Weather past 2 weeks in Hof (Saale), Bavaria, Germany

Now
40 °F

Low clouds.


Feels Like: 37 °F
Forecast: 36 / 39 °F
Wind: 3 mph from Northwest

Location: Hof

Current Time: Dec 20, 2014 at 12:49:49 AM

Latest Report: Dec 20, 2014 at 12:00 AM


Visibility: 14 mi

Pressure: 30.06 "Hg

Humidity: 93%

Dew point: 38 °F

Location of Hof (Saale)Location

Historic Weather in Hof (Saale) — Graph

°F

Hof (Saale) temperature yesterday

Maximum temperature yesterday: 50 °F (at 12:00 AM)
Minimum temperature yesterday: 41 °F (at 11:00 PM)
Average temperature yesterday: 46 °F

Past Weeks' High & Low Weather Summary

 TemperatureHumidityPressure
High50 °F (Dec 19, 12:00 AM)100% (Dec 5, 12:00 AM)30.49 "Hg (Dec 5, 12:00 AM)
Low26 °F (Dec 9, 8:00 PM)70% (Dec 15, 2:00 PM)29.64 "Hg (Dec 12, 9:00 PM)
Average37 °F94%30.02 "Hg
* Reported Midnight between Dec 4 and Dec 5 — Midnight between Dec 19 and Dec 20, Hof (Saale), Weather by CustomWeather, © 2014

Note: Actual official high and low records may vary slightly from our data, if they occured in-between our weather recording intervals... More about our weather records

Advertising

Hof (Saale) weather history for previous 24 hours

 ConditionsComfort  
Time TempWeatherWind HumidityBarometerVisibility
12:00 AM
Dec 20
40 °FLow clouds.3 mph93%30.06 "Hg14 mi
11:00 PM
Dec 19
41 °FOvercast.3 mph90%30.02 "Hg17 mi
9:00 PM44 °FOvercast.6 mph91%29.95 "Hg25 mi
8:00 PM45 °FLow clouds.7 mph90%29.93 "Hg19 mi
7:00 PM46 °FLight rain. Low clouds.7 mph93%29.90 "Hg5 mi
6:00 PM45 °FLight rain. Low clouds.7 mph95%29.88 "Hg7 mi
5:00 PM45 °FLight rain. Low clouds.7 mph94%29.88 "Hg8 mi
3:00 PM45 °FLight rain. Low clouds.10 mph93%29.90 "Hg7 mi
2:00 PM45 °FLight rain. Low clouds.7 mph93%29.91 "Hg16 mi
1:00 PM45 °FLight rain. Low clouds.8 mph92%29.93 "Hg14 mi
12:00 PM46 °FLight rain. Low clouds.9 mph91%29.94 "Hg9 mi
11:00 AM45 °FDrizzle. Low clouds.10 mph94%29.94 "Hg9 mi
10:00 AM45 °FDrizzle. Low clouds.9 mph93%29.95 "Hg7 mi
9:00 AM45 °FDrizzle. Low clouds.8 mph96%29.96 "Hg2 mi
8:00 AM45 °FLight rain. Overcast.10 mph96%29.96 "Hg9 mi
7:00 AM46 °FLight rain. Low clouds.10 mph94%29.95 "Hg7 mi
6:00 AM46 °FOvercast.10 mph91%29.96 "Hg9 mi
5:00 AM46 °FLow clouds.8 mph93%29.96 "Hg25 mi
3:00 AM47 °FDrizzle. Low clouds.7 mph95%29.96 "Hg6 mi
2:00 AM47 °FDrizzle. Low clouds.6 mph97%29.96 "Hg3 mi
1:00 AM49 °FOvercast.8 mph88%29.95 "Hg31 mi
12:00 AM50 °FDrizzle. Low clouds.9 mph91%29.93 "Hg19 mi
Weather by CustomWeather, © 2014

See weather overviewHow to use our weather pages